| time (UTC) | temp C | wind direction | speed KPH | gust KPH | rain 1hr cm | rain 24hr cm | rain mn cm | humidity % | barometer mb |
| 20260905104323 | 23 | 247 | 3.2 | 8.0 | 0.00 | 0.00 | 0.00 | 72 | 1009.2 |
| 20260905103550 | 23 | 294 | 3.2 | 8.0 | 0.00 | 0.00 | 0.00 | 72 | 1009.0 |
| 20260905103319 | 23 | 264 | 4.8 | 9.7 | 0.00 | 0.00 | 0.00 | 72 | 1009.1 |
| 20260905102546 | 23 | 289 | 4.8 | 12.9 | 0.00 | 0.00 | 0.00 | 71 | 1009.1 |
| 20260905102046 | 23 | 348 | 3.2 | 12.9 | 0.00 | 0.00 | 0.00 | 72 | 1009.0 |
| 20260905101546 | 23 | 279 | 3.2 | 8.0 | 0.00 | 0.00 | 0.00 | 73 | 1008.9 |
| 20260905101047 | 23 | 200 | 3.2 | 8.0 | 0.00 | 0.00 | 0.00 | 73 | 1008.8 |
| 20260905100547 | 23 | 282 | 3.2 | 9.7 | 0.00 | 0.00 | 0.00 | 73 | 1008.8 |
| 20260905100042 | 23 | 261 | 3.2 | 9.7 | 0.00 | 0.00 | 0.00 | 74 | 1008.8 |
| 20260905095543 | 23 | 44 | 1.6 | 8.0 | 0.00 | 0.00 | 0.00 | 74 | 1008.9 |
| 20260905095043 | 23 | 264 | 1.6 | 9.7 | 0.00 | 0.00 | 0.00 | 74 | 1008.8 |
| 20260905094542 | 23 | 270 | 1.6 | 9.7 | 0.00 | 0.00 | 0.00 | 74 | 1008.8 |
| 20260905094316 | 23 | 262 | 1.6 | 6.4 | 0.00 | 0.00 | 0.00 | 74 | 1008.8 |
| 20260905093542 | 23 | 265 | 1.6 | 9.7 | 0.00 | 0.00 | 0.00 | 74 | 1008.8 |
| 20260905093315 | 23 | 263 | 1.6 | 9.7 | 0.00 | 0.00 | 0.00 | 74 | 1008.9 |
| 20260905092541 | 23 | 261 | 1.6 | 4.8 | 0.00 | 0.00 | 0.00 | 74 | 1008.9 |
| 20260905092044 | 23 | 257 | 1.6 | 4.8 | 0.00 | 0.00 | 0.00 | 74 | 1008.9 |
| 20260905091538 | 23 | 271 | 3.2 | 8.0 | 0.00 | 0.00 | 0.00 | 74 | 1008.8 |
| 20260905091310 | 23 | 304 | 3.2 | 8.0 | 0.00 | 0.00 | 0.00 | 75 | 1008.8 |
| 20260905090539 | 23 | 0 | 3.2 | 8.0 | 0.00 | 0.00 | 0.00 | 75 | 1008.9 |
| 20260905090040 | 23 | 355 | 3.2 | 6.4 | 0.00 | 0.00 | 0.00 | 75 | 1008.8 |
| 20260905085537 | 23 | 342 | 3.2 | 6.4 | 0.00 | 0.00 | 0.00 | 75 | 1008.8 |
| 20260905085038 | 23 | 11 | 1.6 | 8.0 | 0.00 | 0.00 | 0.00 | 75 | 1008.7 |
| 20260905084539 | 23 | 5 | 1.6 | 8.0 | 0.00 | 0.00 | 0.00 | 74 | 1008.7 |
| 20260905084038 | 23 | 325 | 1.6 | 9.7 | 0.00 | 0.00 | 0.00 | 74 | 1008.7 |
| 20260905083811 | 23 | 328 | 1.6 | 9.7 | 0.00 | 0.00 | 0.00 | 75 | 1008.7 |
| 20260905083309 | 23 | 269 | 1.6 | 9.7 | 0.00 | 0.00 | 0.00 | 75 | 1008.7 |
| 20260905082808 | 23 | 263 | 1.6 | 9.7 | 0.00 | 0.00 | 0.00 | 75 | 1008.8 |
| 20260905082038 | 23 | 298 | 1.6 | 6.4 | 0.00 | 0.00 | 0.00 | 74 | 1008.9 |
| 20260905081540 | 23 | 283 | 1.6 | 6.4 | 0.00 | 0.00 | 0.00 | 74 | 1008.9 |
| 20260905081037 | 23 | 306 | 1.6 | 6.4 | 0.00 | 0.00 | 0.00 | 74 | 1008.9 |
| 20260905080538 | 23 | 277 | 1.6 | 6.4 | 0.00 | 0.00 | 0.00 | 74 | 1008.9 |
| 20260905080039 | 23 | 281 | 0.0 | 4.8 | 0.00 | 0.00 | 0.00 | 74 | 1008.9 |
| 20260905075539 | 23 | 273 | 1.6 | 4.8 | 0.00 | 0.00 | 0.00 | 75 | 1008.8 |
| 20260905075038 | 23 | 273 | 1.6 | 4.8 | 0.00 | 0.00 | 0.00 | 75 | 1008.9 |
| 20260905074538 | 23 | 273 | 3.2 | 6.4 | 0.00 | 0.00 | 0.00 | 75 | 1008.9 |
| 20260905074309 | 23 | 267 | 3.2 | 6.4 | 0.00 | 0.00 | 0.00 | 75 | 1009.1 |
| 20260905073537 | 23 | 265 | 3.2 | 6.4 | 0.00 | 0.00 | 0.00 | 75 | 1009.1 |
| 20260905073307 | 23 | 250 | 1.6 | 4.8 | 0.00 | 0.00 | 0.00 | 73 | 1009.0 |
| 20260905072533 | 23 | 238 | 1.6 | 3.2 | 0.00 | 0.00 | 0.00 | 72 | 1009.1 |
| 20260905072032 | 23 | 237 | 1.6 | 3.2 | 0.00 | 0.00 | 0.00 | 72 | 1009.1 |
| 20260905071533 | 23 | 237 | 1.6 | 4.8 | 0.00 | 0.00 | 0.00 | 72 | 1009.1 |
| 20260905071303 | 23 | 236 | 1.6 | 4.8 | 0.00 | 0.00 | 0.00 | 72 | 1009.2 |
| 20260905070530 | 23 | 234 | 1.6 | 3.2 | 0.00 | 0.00 | 0.00 | 73 | 1009.3 |
| 20260905070303 | 23 | 234 | 1.6 | 4.8 | 0.00 | 0.00 | 0.00 | 73 | 1009.2 |
| 20260905065529 | 23 | 234 | 3.2 | 4.8 | 0.00 | 0.00 | 0.00 | 73 | 1009.3 |
| 20260905065028 | 23 | 230 | 3.2 | 4.8 | 0.00 | 0.00 | 0.00 | 74 | 1009.4 |
| 20260905064527 | 23 | 227 | 4.8 | 8.0 | 0.00 | 0.00 | 0.00 | 73 | 1009.5 |
| 20260905064028 | 23 | 227 | 4.8 | 8.0 | 0.00 | 0.00 | 0.00 | 73 | 1009.5 |
| 20260905063530 | 23 | 238 | 3.2 | 6.4 | 0.00 | 0.00 | 0.00 | 72 | 1009.6 |
| 20260905063255 | 23 | 318 | 1.6 | 4.8 | 0.00 | 0.00 | 0.00 | 71 | 1009.6 |
| 20260905062518 | 23 | 325 | 1.6 | 8.0 | 0.00 | 0.00 | 0.00 | 71 | 1009.6 |
| 20260905062243 | 24 | 17 | 3.2 | 11.3 | 0.00 | 0.00 | 0.00 | 71 | 1009.5 |
| 20260905061506 | 24 | 279 | 4.8 | 12.9 | 0.00 | 0.00 | 0.00 | 72 | 1009.6 |
| 20260905061000 | 25 | 69 | 3.2 | 12.9 | 0.00 | 0.00 | 0.00 | 73 | 1009.5 |
| 20260905060453 | 25 | 347 | 3.2 | 8.0 | 0.00 | 0.00 | 0.00 | 73 | 1009.5 |
| 20260905055952 | 25 | 269 | 1.6 | 4.8 | 0.00 | 0.00 | 0.00 | 74 | 1009.6 |
| 20260905055707 | 25 | 275 | 1.6 | 4.8 | 0.00 | 0.00 | 0.00 | 73 | 1009.6 |
| 20260905054931 | 25 | 16 | 0.0 | 3.2 | 0.00 | 0.00 | 0.00 | 73 | 1009.4 |
| 20260905054655 | 25 | 14 | 1.6 | 11.3 | 0.00 | 0.00 | 0.00 | 74 | 1009.4 |
| 20260905053920 | 25 | 21 | 3.2 | 11.3 | 0.00 | 0.03 | 0.00 | 74 | 1009.4 |
| 20260905053413 | 25 | 11 | 1.6 | 4.8 | 0.00 | 0.03 | 0.00 | 75 | 1009.3 |
| 20260905052907 | 25 | 11 | 1.6 | 4.8 | 0.00 | 0.03 | 0.00 | 75 | 1009.4 |
| 20260905052401 | 25 | 11 | 0.0 | 3.2 | 0.00 | 0.03 | 0.00 | 75 | 1009.5 |
| 20260905051856 | 25 | 11 | 1.6 | 4.8 | 0.00 | 0.03 | 0.00 | 75 | 1009.4 |
| 20260905051350 | 25 | 11 | 0.0 | 4.8 | 0.00 | 0.03 | 0.00 | 74 | 1009.4 |
| 20260905051114 | 25 | 10 | 0.0 | 1.6 | 0.00 | 0.03 | 0.00 | 74 | 1009.6 |
| 20260905050338 | 25 | 11 | 1.6 | 4.8 | 0.00 | 0.03 | 0.00 | 74 | 1009.7 |
| 20260905045831 | 25 | 10 | 3.2 | 6.4 | 0.00 | 0.03 | 0.00 | 73 | 1009.7 |
| 20260905045325 | 25 | 9 | 3.2 | 8.0 | 0.00 | 0.03 | 0.00 | 72 | 1009.8 |
| 20260905044819 | 26 | 9 | 3.2 | 8.0 | 0.00 | 0.03 | 0.00 | 71 | 1009.9 |
| 20260905044314 | 26 | 289 | 1.6 | 11.3 | 0.00 | 0.03 | 0.00 | 72 | 1010.0 |
| 20260905043807 | 26 | 280 | 3.2 | 11.3 | 0.00 | 0.03 | 0.00 | 73 | 1010.1 |
| 20260905043302 | 25 | 224 | 4.8 | 12.9 | 0.00 | 0.03 | 0.00 | 73 | 1010.0 |
| 20260905042756 | 26 | 246 | 6.4 | 12.9 | 0.00 | 0.03 | 0.00 | 74 | 1010.1 |
| 20260905042250 | 26 | 234 | 3.2 | 11.3 | 0.00 | 0.03 | 0.00 | 75 | 1010.1 |
| 20260905041744 | 26 | 272 | 1.6 | 6.4 | 0.00 | 0.03 | 0.00 | 73 | 1010.1 |
| 20260905041237 | 26 | 284 | 1.6 | 4.8 | 0.00 | 0.03 | 0.00 | 73 | 1010.1 |
| 20260905040731 | 26 | 288 | 1.6 | 4.8 | 0.00 | 0.03 | 0.00 | 73 | 1010.0 |
| 20260905040226 | 26 | 269 | 1.6 | 3.2 | 0.00 | 0.03 | 0.00 | 73 | 1009.9 |
| 20260905035720 | 26 | 272 | 1.6 | 3.2 | 0.00 | 0.03 | 0.03 | 73 | 1010.1 |
| 20260905035214 | 26 | 275 | 1.6 | 3.2 | 0.00 | 0.03 | 0.03 | 74 | 1010.0 |
| 20260905034707 | 26 | 277 | 1.6 | 4.8 | 0.00 | 0.03 | 0.03 | 75 | 1010.0 |
| 20260905034202 | 26 | 277 | 1.6 | 4.8 | 0.00 | 0.03 | 0.03 | 75 | 1010.0 |
| 20260905033656 | 26 | 279 | 1.6 | 4.8 | 0.00 | 0.03 | 0.03 | 75 | 1010.1 |
| 20260905033150 | 26 | 280 | 1.6 | 4.8 | 0.00 | 0.03 | 0.03 | 75 | 1010.1 |
| 20260905032644 | 26 | 279 | 1.6 | 4.8 | 0.00 | 0.03 | 0.03 | 75 | 1010.1 |
| 20260905032138 | 26 | 287 | 1.6 | 4.8 | 0.00 | 0.03 | 0.03 | 76 | 1010.0 |
| 20260905031644 | 26 | 292 | 1.6 | 4.8 | 0.00 | 0.03 | 0.03 | 76 | 1010.0 |
| 20260905031356 | 26 | 301 | 1.6 | 4.8 | 0.00 | 0.03 | 0.03 | 76 | 1010.0 |
| 20260905030851 | 26 | 306 | 1.6 | 4.8 | 0.00 | 0.03 | 0.03 | 76 | 1009.9 |
| 20260905030114 | 26 | 309 | 1.6 | 6.4 | 0.00 | 0.03 | 0.03 | 76 | 1010.0 |
| 20260905025608 | 26 | 319 | 1.6 | 6.4 | 0.00 | 0.03 | 0.03 | 76 | 1010.0 |
| 20260905025102 | 26 | 302 | 1.6 | 3.2 | 0.00 | 0.03 | 0.03 | 76 | 1010.0 |
| 20260905024556 | 26 | 278 | 1.6 | 3.2 | 0.00 | 0.03 | 0.03 | 76 | 1010.0 |
| 20260905024050 | 26 | 281 | 1.6 | 4.8 | 0.00 | 0.03 | 0.03 | 76 | 1009.9 |
| 20260905023543 | 26 | 279 | 3.2 | 4.8 | 0.00 | 0.03 | 0.03 | 76 | 1009.8 |
| 20260905023038 | 26 | 279 | 3.2 | 4.8 | 0.00 | 0.03 | 0.03 | 76 | 1009.9 |
| 20260905022531 | 26 | 282 | 1.6 | 4.8 | 0.00 | 0.03 | 0.03 | 75 | 1009.8 |
| 20260905022026 | 26 | 280 | 1.6 | 4.8 | 0.00 | 0.03 | 0.03 | 75 | 1009.8 |
| 20260905021520 | 26 | 281 | 1.6 | 4.8 | 0.00 | 0.03 | 0.03 | 75 | 1009.9 |
| 20260905021014 | 26 | 279 | 1.6 | 6.4 | 0.00 | 0.03 | 0.03 | 75 | 1010.0 |
| 20260905020507 | 26 | 280 | 1.6 | 6.4 | 0.00 | 0.03 | 0.03 | 75 | 1010.1 |
| 20260905020001 | 27 | 283 | 1.6 | 4.8 | 0.00 | 0.03 | 0.03 | 75 | 1010.0 |
| 20260905015455 | 27 | 283 | 1.6 | 4.8 | 0.00 | 0.03 | 0.03 | 75 | 1010.0 |
| 20260905014949 | 27 | 282 | 1.6 | 4.8 | 0.00 | 0.03 | 0.03 | 75 | 1010.0 |
| 20260905014444 | 27 | 282 | 3.2 | 4.8 | 0.00 | 0.03 | 0.03 | 75 | 1010.1 |
| 20260905013937 | 27 | 281 | 3.2 | 4.8 | 0.00 | 0.03 | 0.03 | 75 | 1010.1 |
| 20260905013431 | 27 | 288 | 3.2 | 9.7 | 0.00 | 0.03 | 0.03 | 75 | 1010.0 |
| 20260905012925 | 27 | 288 | 3.2 | 9.7 | 0.00 | 0.03 | 0.03 | 75 | 1010.1 |
| 20260905012420 | 27 | 271 | 3.2 | 6.4 | 0.00 | 0.03 | 0.03 | 75 | 1010.1 |
| 20260905011913 | 27 | 280 | 3.2 | 9.7 | 0.00 | 0.03 | 0.03 | 75 | 1010.1 |
| 20260905011407 | 27 | 279 | 3.2 | 9.7 | 0.00 | 0.03 | 0.03 | 75 | 1010.1 |
| 20260905010902 | 27 | 274 | 3.2 | 9.7 | 0.00 | 0.03 | 0.03 | 75 | 1010.1 |
| 20260905010355 | 27 | 279 | 4.8 | 9.7 | 0.00 | 0.03 | 0.03 | 75 | 1010.1 |
| 20260905010121 | 27 | 278 | 4.8 | 9.7 | 0.00 | 0.03 | 0.03 | 75 | 1010.0 |
| 20260905010013 | 27 | 284 | 4.8 | 9.7 | 0.00 | 0.03 | 0.03 | 74 | 1009.9 |
| 20260905004838 | 27 | 269 | 4.8 | 9.7 | 0.00 | 0.03 | 0.03 | 74 | 1009.8 |
| 20260905004331 | 27 | 257 | 4.8 | 9.7 | 0.00 | 0.03 | 0.03 | 74 | 1009.9 |
| 20260905004057 | 27 | 286 | 4.8 | 11.3 | 0.00 | 0.03 | 0.03 | 74 | 1009.8 |
| 20260905003319 | 27 | 282 | 4.8 | 11.3 | 0.00 | 0.03 | 0.03 | 74 | 1009.6 |
| 20260905002813 | 27 | 271 | 3.2 | 9.7 | 0.00 | 0.03 | 0.03 | 74 | 1009.5 |
| 20260905002308 | 27 | 265 | 3.2 | 9.7 | 0.00 | 0.03 | 0.03 | 74 | 1009.5 |
| 20260905001802 | 27 | 282 | 3.2 | 8.0 | 0.00 | 0.03 | 0.03 | 74 | 1009.4 |
| 20260905001256 | 27 | 223 | 3.2 | 8.0 | 0.00 | 0.03 | 0.03 | 74 | 1009.3 |
| 20260905000749 | 27 | 248 | 3.2 | 6.4 | 0.00 | 0.03 | 0.03 | 74 | 1009.3 |
| 20260905000516 | 27 | 284 | 3.2 | 6.4 | 0.00 | 0.03 | 0.03 | 73 | 1009.5 |
| 20260904235738 | 27 | 259 | 3.2 | 6.4 | 0.00 | 0.03 | 0.03 | 73 | 1009.4 |
| 20260904235232 | 28 | 254 | 3.2 | 6.4 | 0.00 | 0.03 | 0.03 | 72 | 1009.4 |
| 20260904234730 | 28 | 286 | 3.2 | 6.4 | 0.00 | 0.03 | 0.03 | 70 | 1009.5 |
| 20260904234227 | 28 | 287 | 1.6 | 6.4 | 0.00 | 0.03 | 0.03 | 70 | 1009.5 |
| 20260904233727 | 28 | 288 | 1.6 | 3.2 | 0.00 | 0.03 | 0.03 | 70 | 1009.5 |
| 20260904233226 | 28 | 289 | 1.6 | 4.8 | 0.00 | 0.03 | 0.03 | 69 | 1009.6 |
| 20260904232727 | 28 | 290 | 1.6 | 4.8 | 0.00 | 0.03 | 0.03 | 69 | 1009.8 |
| 20260904232501 | 28 | 277 | 1.6 | 4.8 | 0.00 | 0.03 | 0.03 | 69 | 1009.6 |
| 20260904231727 | 28 | 277 | 1.6 | 4.8 | 0.00 | 0.03 | 0.03 | 69 | 1009.8 |
| 20260904231500 | 28 | 279 | 1.6 | 4.8 | 0.00 | 0.03 | 0.03 | 69 | 1009.8 |
| 20260904230725 | 28 | 278 | 1.6 | 4.8 | 0.00 | 0.03 | 0.03 | 69 | 1009.8 |
| 20260904230500 | 28 | 280 | 1.6 | 4.8 | 0.00 | 0.03 | 0.03 | 68 | 1009.8 |
| 20260904225727 | 28 | 281 | 1.6 | 4.8 | 0.00 | 0.03 | 0.03 | 68 | 1009.8 |
| 20260904225224 | 28 | 281 | 1.6 | 6.4 | 0.00 | 0.03 | 0.03 | 67 | 1009.8 |
| 20260904224721 | 28 | 281 | 1.6 | 6.4 | 0.00 | 0.03 | 0.03 | 67 | 1009.7 |
| 20260904224221 | 28 | 294 | 1.6 | 4.8 | 0.00 | 0.03 | 0.03 | 68 | 1009.7 |
| 20260904223722 | 28 | 282 | 1.6 | 4.8 | 0.00 | 0.03 | 0.03 | 68 | 1009.6 |
| 20260904223218 | 28 | 279 | 3.2 | 6.4 | 0.00 | 0.03 | 0.03 | 68 | 1009.7 |
| 20260904222719 | 28 | 279 | 3.2 | 6.4 | 0.00 | 0.03 | 0.03 | 68 | 1009.7 |
| 20260904222221 | 28 | 273 | 1.6 | 4.8 | 0.00 | 0.03 | 0.03 | 68 | 1009.7 |
| 20260904221714 | 28 | 281 | 1.6 | 6.4 | 0.00 | 0.03 | 0.03 | 69 | 1009.7 |
| 20260904221444 | 28 | 341 | 3.2 | 9.7 | 0.00 | 0.03 | 0.03 | 71 | 1009.6 |
| 20260904220708 | 28 | 329 | 3.2 | 9.7 | 0.00 | 0.03 | 0.03 | 74 | 1009.6 |
| 20260904220207 | 27 | 267 | 1.6 | 8.0 | 0.00 | 0.03 | 0.03 | 78 | 1009.7 |
| 20260904215707 | 27 | 159 | 1.6 | 6.4 | 0.00 | 0.03 | 0.03 | 80 | 1009.5 |
| 20260904215205 | 27 | 159 | 3.2 | 6.4 | 0.00 | 0.03 | 0.03 | 81 | 1009.7 |
| 20260904214705 | 27 | 164 | 3.2 | 9.7 | 0.00 | 0.03 | 0.03 | 81 | 1009.8 |
| 20260904214437 | 27 | 153 | 4.8 | 9.7 | 0.00 | 0.03 | 0.03 | 81 | 1009.8 |
| 20260904213934 | 27 | 157 | 4.8 | 9.7 | 0.00 | 0.03 | 0.03 | 80 | 1009.9 |
| 20260904213204 | 27 | 160 | 4.8 | 9.7 | 0.00 | 0.03 | 0.03 | 80 | 1009.9 |
| 20260904212700 | 27 | 165 | 4.8 | 8.0 | 0.00 | 0.03 | 0.03 | 80 | 1009.7 |
| 20260904212201 | 27 | 155 | 4.8 | 11.3 | 0.00 | 0.03 | 0.03 | 81 | 1009.6 |
| 20260904211701 | 27 | 149 | 4.8 | 11.3 | 0.00 | 0.03 | 0.03 | 80 | 1009.5 |
| 20260904211435 | 27 | 153 | 4.8 | 11.3 | 0.00 | 0.03 | 0.03 | 81 | 1009.5 |
| 20260904210702 | 27 | 174 | 4.8 | 11.3 | 0.00 | 0.03 | 0.03 | 81 | 1009.6 |
| 20260904210204 | 27 | 151 | 4.8 | 11.3 | 0.00 | 0.03 | 0.03 | 81 | 1009.7 |
| 20260904205659 | 27 | 153 | 3.2 | 9.7 | 0.00 | 0.03 | 0.03 | 80 | 1009.8 |
| 20260904205200 | 27 | 136 | 3.2 | 9.7 | 0.00 | 0.03 | 0.03 | 80 | 1009.8 |
| 20260904204701 | 27 | 157 | 6.4 | 9.7 | 0.00 | 0.03 | 0.03 | 80 | 1009.8 |
| 20260904204200 | 27 | 167 | 6.4 | 9.7 | 0.00 | 0.03 | 0.03 | 79 | 1009.9 |
| 20260904203658 | 27 | 153 | 4.8 | 9.7 | 0.00 | 0.03 | 0.03 | 79 | 1010.0 |
| 20260904203200 | 27 | 171 | 3.2 | 11.3 | 0.00 | 0.03 | 0.03 | 78 | 1010.0 |
| 20260904202700 | 27 | 169 | 4.8 | 11.3 | 0.00 | 0.03 | 0.03 | 77 | 1009.8 |
| 20260904202159 | 27 | 169 | 4.8 | 9.7 | 0.00 | 0.03 | 0.03 | 76 | 1009.9 |
| 20260904201654 | 27 | 140 | 4.8 | 11.3 | 0.00 | 0.03 | 0.03 | 76 | 1009.9 |
| 20260904201155 | 27 | 168 | 6.4 | 14.5 | 0.00 | 0.03 | 0.03 | 76 | 1010.1 |
| 20260904200657 | 27 | 146 | 4.8 | 14.5 | 0.00 | 0.03 | 0.03 | 76 | 1010.2 |
| 20260904200155 | 27 | 173 | 4.8 | 11.3 | 0.00 | 0.03 | 0.03 | 78 | 1010.2 |
| 20260904195657 | 27 | 168 | 6.4 | 12.9 | 0.00 | 0.03 | 0.03 | 79 | 1010.3 |
| 20260904195157 | 27 | 161 | 8.0 | 12.9 | 0.00 | 0.03 | 0.03 | 79 | 1010.4 |
| 20260904194655 | 27 | 161 | 8.0 | 12.9 | 0.00 | 0.03 | 0.03 | 79 | 1010.5 |
| 20260904194157 | 27 | 161 | 6.4 | 12.9 | 0.00 | 0.03 | 0.03 | 79 | 1010.5 |
| 20260904193658 | 27 | 162 | 6.4 | 12.9 | 0.00 | 0.03 | 0.03 | 79 | 1010.6 |
| 20260904193152 | 26 | 158 | 6.4 | 11.3 | 0.00 | 0.03 | 0.03 | 79 | 1010.7 |
| 20260904192653 | 26 | 150 | 6.4 | 11.3 | 0.00 | 0.03 | 0.03 | 79 | 1010.8 |
| 20260904192152 | 26 | 147 | 6.4 | 12.9 | 0.00 | 0.03 | 0.03 | 79 | 1010.8 |
| 20260904191653 | 26 | 174 | 6.4 | 12.9 | 0.00 | 0.03 | 0.03 | 79 | 1010.8 |
| 20260904191150 | 27 | 175 | 6.4 | 11.3 | 0.00 | 0.03 | 0.03 | 79 | 1010.8 |
| 20260904190650 | 26 | 194 | 6.4 | 11.3 | 0.00 | 0.03 | 0.03 | 79 | 1010.8 |
| 20260904190423 | 27 | 172 | 6.4 | 12.9 | 0.00 | 0.03 | 0.03 | 79 | 1010.8 |
| 20260904185651 | 27 | 179 | 6.4 | 12.9 | 0.00 | 0.03 | 0.03 | 78 | 1010.8 |
| 20260904185154 | 27 | 173 | 4.8 | 9.7 | 0.00 | 0.03 | 0.03 | 77 | 1010.9 |
| 20260904185149 | 27 | 142 | 4.8 | 9.7 | 0.00 | 0.03 | 0.03 | 77 | 1010.9 |
| 20260904184147 | 27 | 148 | 4.8 | 9.7 | 0.00 | 0.03 | 0.03 | 77 | 1011.0 |
| 20260904183645 | 27 | 140 | 3.2 | 9.7 | 0.00 | 0.03 | 0.03 | 77 | 1011.1 |
| 20260904183144 | 27 | 126 | 4.8 | 9.7 | 0.00 | 0.03 | 0.03 | 77 | 1011.1 |
| 20260904182645 | 27 | 128 | 4.8 | 9.7 | 0.00 | 0.03 | 0.03 | 77 | 1011.0 |
| 20260904182417 | 27 | 128 | 4.8 | 11.3 | 0.00 | 0.03 | 0.03 | 76 | 1011.0 |
| 20260904181924 | 27 | 165 | 4.8 | 11.3 | 0.00 | 0.03 | 0.03 | 75 | 1011.0 |
| 20260904181144 | 28 | 182 | 4.8 | 11.3 | 0.00 | 0.03 | 0.03 | 75 | 1011.0 |
| 20260904180645 | 28 | 143 | 4.8 | 11.3 | 0.00 | 0.03 | 0.03 | 75 | 1011.0 |
| 20260904180145 | 28 | 136 | 4.8 | 11.3 | 0.00 | 0.03 | 0.03 | 74 | 1011.0 |
| 20260904175645 | 28 | 156 | 4.8 | 11.3 | 0.00 | 0.03 | 0.03 | 75 | 1011.0 |
| 20260904175146 | 28 | 140 | 4.8 | 11.3 | 0.00 | 0.03 | 0.03 | 74 | 1011.0 |
| 20260904174639 | 28 | 156 | 3.2 | 9.7 | 0.00 | 0.03 | 0.03 | 74 | 1011.1 |
| 20260904174133 | 28 | 154 | 3.2 | 8.0 | 0.00 | 0.03 | 0.03 | 74 | 1011.0 |
| 20260904173630 | 28 | 151 | 4.8 | 9.7 | 0.00 | 0.03 | 0.03 | 75 | 1011.1 |
| 20260904173353 | 27 | 164 | 4.8 | 11.3 | 0.00 | 0.03 | 0.03 | 74 | 1011.1 |
| 20260904172616 | 28 | 148 | 3.2 | 11.3 | 0.00 | 0.03 | 0.03 | 75 | 1011.1 |
| 20260904172110 | 27 | 141 | 4.8 | 12.9 | 0.00 | 0.03 | 0.03 | 75 | 1011.1 |
| 20260904171610 | 27 | 51 | 6.4 | 12.9 | 0.00 | 0.03 | 0.03 | 75 | 1011.0 |
| 20260904171111 | 27 | 88 | 6.4 | 12.9 | 0.00 | 0.03 | 0.03 | 74 | 1010.9 |
| 20260904170611 | 27 | 78 | 6.4 | 12.9 | 0.00 | 0.03 | 0.03 | 74 | 1010.9 |
| 20260904170107 | 27 | 86 | 6.4 | 11.3 | 0.00 | 0.03 | 0.03 | 72 | 1010.8 |
| 20260904165607 | 28 | 84 | 6.4 | 12.9 | 0.00 | 0.03 | 0.03 | 72 | 1010.8 |
| 20260904165104 | 28 | 98 | 6.4 | 12.9 | 0.00 | 0.03 | 0.03 | 70 | 1010.8 |
| 20260904164608 | 29 | 94 | 6.4 | 14.5 | 0.00 | 0.03 | 0.03 | 65 | 1010.8 |
| 20260904164337 | 31 | 68 | 6.4 | 14.5 | 0.00 | 0.03 | 0.03 | 54 | 1011.0 |
| 20260904163607 | 31 | 47 | 6.4 | 14.5 | 0.00 | 0.03 | 0.03 | 52 | 1010.9 |
| 20260904163112 | 32 | 162 | 4.8 | 14.5 | 0.00 | 0.03 | 0.03 | 50 | 1010.9 |
| 20260904162604 | 32 | 340 | 4.8 | 14.5 | 0.00 | 0.03 | 0.03 | 50 | 1011.0 |
| 20260904162103 | 32 | 131 | 4.8 | 17.7 | 0.00 | 0.03 | 0.03 | 50 | 1011.1 |
| 20260904161840 | 31 | 11 | 4.8 | 17.7 | 0.00 | 0.03 | 0.03 | 51 | 1011.0 |
| 20260904161100 | 31 | 255 | 6.4 | 17.7 | 0.00 | 0.03 | 0.03 | 53 | 1011.0 |
| 20260904160602 | 31 | 183 | 8.0 | 17.7 | 0.00 | 0.03 | 0.03 | 53 | 1011.0 |
| 20260904160103 | 32 | 19 | 6.4 | 19.3 | 0.00 | 0.03 | 0.03 | 52 | 1011.1 |
| 20260904155555 | 32 | 34 | 6.4 | 19.3 | 0.00 | 0.03 | 0.03 | 52 | 1011.2 |
| 20260904155327 | 32 | 194 | 4.8 | 11.3 | 0.00 | 0.03 | 0.03 | 53 | 1011.2 |
| 20260904154543 | 32 | 130 | 4.8 | 9.7 | 0.00 | 0.03 | 0.03 | 53 | 1011.2 |
| 20260904154310 | 32 | 334 | 4.8 | 11.3 | 0.00 | 0.03 | 0.03 | 53 | 1011.2 |
| 20260904153535 | 31 | 66 | 4.8 | 19.3 | 0.00 | 0.03 | 0.03 | 54 | 1011.2 |
| 20260904153257 | 31 | 21 | 4.8 | 19.3 | 0.00 | 0.03 | 0.03 | 55 | 1011.2 |
| 20260904152519 | 31 | 0 | 4.8 | 12.9 | 0.00 | 0.03 | 0.03 | 55 | 1011.2 |
| 20260904152013 | 31 | 11 | 4.8 | 12.9 | 0.00 | 0.03 | 0.03 | 55 | 1011.1 |
| 20260904151507 | 31 | 337 | 4.8 | 16.1 | 0.00 | 0.03 | 0.03 | 57 | 1011.1 |
| 20260904151231 | 31 | 51 | 4.8 | 16.1 | 0.00 | 0.03 | 0.03 | 58 | 1011.2 |
| 20260904150454 | 31 | 20 | 4.8 | 19.3 | 0.00 | 0.03 | 0.03 | 59 | 1011.1 |
| 20260904145949 | 31 | 77 | 4.8 | 19.3 | 0.00 | 0.03 | 0.03 | 60 | 1011.1 |
| 20260904145443 | 31 | 104 | 4.8 | 11.3 | 0.00 | 0.03 | 0.03 | 61 | 1011.2 |
| 20260904144938 | 30 | 271 | 4.8 | 16.1 | 0.00 | 0.03 | 0.03 | 61 | 1011.1 |
| 20260904144431 | 30 | 342 | 4.8 | 16.1 | 0.00 | 0.03 | 0.03 | 63 | 1011.1 |
| 20260904143925 | 30 | 254 | 4.8 | 14.5 | 0.00 | 0.03 | 0.03 | 65 | 1011.1 |
| 20260904143419 | 30 | 267 | 4.8 | 14.5 | 0.00 | 0.03 | 0.03 | 66 | 1011.1 |
| 20260904142916 | 30 | 271 | 4.8 | 16.1 | 0.00 | 0.03 | 0.03 | 66 | 1011.1 |
| 20260904142408 | 29 | 9 | 6.4 | 16.1 | 0.00 | 0.03 | 0.03 | 67 | 1011.1 |
| 20260904141901 | 29 | 81 | 4.8 | 14.5 | 0.00 | 0.03 | 0.03 | 68 | 1011.1 |
| 20260904141627 | 29 | 265 | 4.8 | 12.9 | 0.00 | 0.03 | 0.03 | 69 | 1011.2 |
| 20260904140849 | 28 | 241 | 4.8 | 12.9 | 0.00 | 0.03 | 0.03 | 70 | 1011.2 |
| 20260904140343 | 28 | 257 | 6.4 | 16.1 | 0.00 | 0.03 | 0.03 | 71 | 1011.2 |
| 20260904135836 | 28 | 312 | 4.8 | 16.1 | 0.00 | 0.03 | 0.03 | 69 | 1011.2 |
| 20260904135332 | 28 | 280 | 4.8 | 12.9 | 0.00 | 0.03 | 0.03 | 71 | 1011.2 |
| 20260904134825 | 28 | 5 | 4.8 | 12.9 | 0.00 | 0.03 | 0.03 | 72 | 1011.1 |
| 20260904134320 | 28 | 279 | 3.2 | 12.9 | 0.00 | 0.03 | 0.03 | 72 | 1011.2 |
| 20260904133814 | 27 | 258 | 4.8 | 14.5 | 0.00 | 0.03 | 0.03 | 74 | 1011.1 |
| 20260904133307 | 27 | 275 | 8.0 | 19.3 | 0.00 | 0.03 | 0.03 | 75 | 1011.1 |
| 20260904132801 | 27 | 246 | 6.4 | 19.3 | 0.00 | 0.03 | 0.03 | 76 | 1011.1 |
| 20260904132254 | 27 | 238 | 6.4 | 14.5 | 0.00 | 0.03 | 0.03 | 76 | 1011.1 |
| 20260904131748 | 26 | 286 | 8.0 | 20.9 | 0.00 | 0.03 | 0.03 | 77 | 1011.0 |
| 20260904131248 | 26 | 274 | 9.7 | 20.9 | 0.00 | 0.03 | 0.03 | 77 | 1011.0 |
| 20260904130737 | 26 | 272 | 9.7 | 19.3 | 0.00 | 0.03 | 0.03 | 77 | 1011.0 |
| 20260904130231 | 26 | 306 | 9.7 | 19.3 | 0.00 | 0.03 | 0.03 | 78 | 1011.0 |
| 20260904125727 | 26 | 277 | 9.7 | 19.3 | 0.00 | 0.03 | 0.03 | 79 | 1011.0 |
| 20260904125220 | 26 | 274 | 11.3 | 19.3 | 0.00 | 0.03 | 0.03 | 79 | 1011.0 |
| 20260904124945 | 26 | 280 | 11.3 | 20.9 | 0.00 | 0.03 | 0.03 | 79 | 1011.0 |
| 20260904124213 | 26 | 240 | 9.7 | 20.9 | 0.00 | 0.03 | 0.03 | 79 | 1011.0 |
| 20260904123701 | 26 | 270 | 8.0 | 16.1 | 0.00 | 0.03 | 0.03 | 80 | 1011.0 |
| 20260904123155 | 25 | 279 | 8.0 | 16.1 | 0.00 | 0.03 | 0.03 | 81 | 1010.9 |
| 20260904122655 | 25 | 53 | 9.7 | 20.9 | 0.00 | 0.03 | 0.03 | 81 | 1011.1 |
| 20260904122143 | 25 | 261 | 11.3 | 20.9 | 0.00 | 0.03 | 0.03 | 82 | 1011.0 |
| 20260904121636 | 25 | 279 | 11.3 | 20.9 | 0.00 | 0.03 | 0.03 | 82 | 1011.0 |
| 20260904121137 | 25 | 283 | 11.3 | 20.9 | 0.00 | 0.03 | 0.03 | 83 | 1011.0 |
| 20260904120900 | 25 | 309 | 9.7 | 19.3 | 0.00 | 0.03 | 0.03 | 83 | 1011.0 |
| 20260904120800 | 25 | 250 | 9.7 | 20.9 | 0.00 | 0.03 | 0.03 | 84 | 1010.8 |
| 20260904120534 | 25 | 285 | 9.7 | 20.9 | 0.00 | 0.03 | 0.03 | 84 | 1010.9 |
| 20260904115112 | 25 | 290 | 9.7 | 20.9 | 0.00 | 0.03 | 0.03 | 84 | 1010.8 |
| 20260904114601 | 24 | 221 | 11.3 | 20.9 | 0.00 | 0.03 | 0.03 | 85 | 1010.8 |
| 20260904114054 | 24 | 264 | 11.3 | 19.3 | 0.00 | 0.03 | 0.03 | 85 | 1010.7 |
| 20260904113831 | 24 | 246 | 11.3 | 19.3 | 0.00 | 0.03 | 0.03 | 85 | 1010.6 |
| 20260904113053 | 24 | 278 | 11.3 | 19.3 | 0.00 | 0.03 | 0.03 | 86 | 1010.7 |
| 20260904112824 | 24 | 264 | 9.7 | 19.3 | 0.00 | 0.03 | 0.03 | 86 | 1010.6 |
| 20260904112058 | 24 | 277 | 11.3 | 22.5 | 0.00 | 0.03 | 0.03 | 86 | 1010.6 |
| 20260904111552 | 24 | 290 | 11.3 | 22.5 | 0.00 | 0.03 | 0.03 | 86 | 1010.6 |
| 20260904111052 | 24 | 286 | 9.7 | 19.3 | 0.00 | 0.03 | 0.03 | 86 | 1010.6 |
| 20260904110552 | 24 | 257 | 8.0 | 19.3 | 0.00 | 0.03 | 0.03 | 87 | 1010.6 |
| 20260904110052 | 24 | 306 | 8.0 | 19.3 | 0.00 | 0.03 | 0.03 | 87 | 1010.4 |
| 20260904105552 | 24 | 212 | 8.0 | 16.1 | 0.00 | 0.03 | 0.03 | 87 | 1010.4 |
| 20260904105052 | 24 | 250 | 6.4 | 14.5 | 0.00 | 0.03 | 0.03 | 87 | 1010.3 |
| 20260904104553 | 24 | 260 | 9.7 | 19.3 | 0.00 | 0.03 | 0.03 | 87 | 1010.4 |